Home   Weather   Ulaanbaatar   Past weeks
Flag for Mongolia

Past Weather in Ulaanbaatar, Mongolia — Yesterday and Last 2 Weeks

Now
-6 °F

Clear.


Feels Like: -19 °F
Forecast: 16 / -4 °F
Wind: 6 mph from South

Location: Ulan-Bator

Current Time: Jan 22, 2019 at 8:39:18 pm

Latest Report: Jan 22, 2019 at 8:00 pm


Visibility: 5 mi

Pressure: 30.04 "Hg (25.19 "Hg at 1298m altitude)

Humidity: 70%

Dew Point: -13 °F

Location of UlaanbaatarLocation

Past Weather in Ulaanbaatar — Graph

°F

Ulaanbaatar Temperature Yesterday

Maximum temperature yesterday: 19 °F (at 3:30 pm)
Minimum temperature yesterday: -20 °F (at 5:30 am)
Average temperature yesterday: -4 °F

High & Low Weather Summary for the Past Weeks

 TemperatureHumidityPressure
High21 °F (Jan 22, 3:30 pm)84% (Jan 12, 8:00 pm)30.60 "Hg (Jan 12, 8:00 pm)
Low-29 °F (Jan 8, 9:00 am)30% (Jan 22, 3:30 pm)29.74 "Hg (Jan 11, 3:00 pm)
Average-8 °F64%30.15 "Hg
* Reported Jan 7 7:00 pm — Jan 22 7:30 pm, Ulaanbaatar. Weather by CustomWeather, © 2019

Note: Actual official high and low records may vary slightly from our data, if they occured in-between our weather recording intervals... More about our weather records

Advertising

Ulaanbaatar Weather History for the Previous 24 Hours

Scroll right to see more
 ConditionsComfort  
Time TempWeatherWind HumidityBarometerVisibility
7:30 pm
Tue, Jan 22
-4 °FClear.6 mph65%30.04 "Hg5 mi
7:00 pm-2 °FClear.3 mph65%30.04 "Hg5 mi
6:30 pm-2 °FClear.6 mph65%30.04 "Hg5 mi
6:00 pm1 °FClear.3 mph60%30.04 "Hg4 mi
5:30 pm7 °FClear.1 mph51%30.04 "Hg4 mi
5:00 pm18 °FClear.No wind38%30.04 "Hg4 mi
4:30 pm19 °FClear.1 mph35%30.04 "Hg4 mi
3:30 pm21 °FClear.No wind30%30.04 "Hg3 mi
3:00 pm18 °FClear.1 mph38%30.04 "Hg3 mi
2:30 pm18 °FClear.No wind38%30.04 "Hg3 mi
2:00 pm16 °FClear.1 mph41%30.07 "Hg3 mi
1:30 pm14 °FClear.No wind41%30.07 "Hg3 mi
1:00 pm10 °FClear.1 mph47%30.09 "Hg2 mi
12:30 pm9 °FClear.1 mph47%30.09 "Hg2 mi
12:00 pm9 °FClear.1 mph47%30.09 "Hg2 mi
11:30 am3 °FClear.1 mph60%30.09 "Hg2 mi
11:00 am3 °FClear.No wind55%30.09 "Hg2 mi
10:30 am-2 °FClear.No wind65%30.09 "Hg2 mi
10:00 am-6 °FClear.1 mph70%30.09 "Hg2 mi
9:30 am-11 °FClear.No wind70%30.09 "Hg2 mi
9:00 am-13 °FClear.1 mph69%30.09 "Hg2 mi
8:30 am-15 °FClear.No wind69%30.07 "Hg2 mi
8:00 am-13 °FClear.1 mph69%30.07 "Hg2 mi
7:30 am-13 °FClear.No wind76%30.07 "Hg3 mi
7:00 am-13 °FClear.1 mph76%30.07 "Hg3 mi
6:30 am-15 °FClear.1 mph69%30.07 "Hg3 mi
6:00 am-9 °FClear.1 mph70%30.07 "Hg3 mi
5:30 am-8 °FClear.1 mph70%30.07 "Hg3 mi
5:00 am-13 °FClear.3 mph76%30.07 "Hg3 mi
4:00 am-11 °FClear.1 mph70%30.07 "Hg3 mi
3:00 am-9 °FClear.1 mph70%30.04 "Hg4 mi
2:00 am-6 °FClear.1 mph64%30.04 "Hg4 mi
1:00 am-8 °FClear.1 mph70%30.07 "Hg4 mi
12:00 am-8 °FClear.1 mph70%30.04 "Hg10 mi
11:30 pm
Mon, Jan 21
-4 °FClear.3 mph65%30.04 "Hg10 mi
11:00 pm-8 °FClear.3 mph70%30.04 "Hg10 mi
10:30 pm-6 °FClear.1 mph64%30.04 "Hg10 mi
10:00 pm-4 °FClear.No wind65%30.04 "Hg10 mi
9:00 pm-4 °FClear.3 mph59%30.04 "Hg10 mi
8:30 pm-2 °FClear.1 mph59%30.04 "Hg10 mi
8:00 pm0 °FClear.3 mph60%30.04 "Hg10 mi
Weather by CustomWeather, © 2019

See weather overview